FW1524 Weather Reports


time (UTC)temp
C
wind
direction
speed
KPH
gust
KPH
rain 1hr
cm
rain 24hr
cm
rain mn
cm
humidity
%
barometer
mb
20260831193034 70 168 0.0 0.0 0.00 0.56 0.56 1 1016.8
20260831191518 19 168 0.0 0.0 0.00 0.56 0.56 1 1017.0
20260831184513 19 173 0.0 0.0 0.05 0.56 0.56 1 1017.3
20260831183009 19 164 0.0 0.0 0.10 0.56 0.56 1 1017.6
20260831181505 18 167 0.0 0.0 0.15 0.56 0.56 1 1017.8
20260831174559 19 169 0.0 0.0 0.20 0.53 0.53 1 1018.2
20260831173055 19 169 0.0 0.0 0.20 0.46 0.46 1 1018.3
20260831171553 20 169 0.0 0.0 0.41 0.43 0.43 1 1018.5
20260831170149 20 165 0.0 0.0 0.36 0.36 0.36 1 1018.5
20260831164557 20 165 0.0 0.0 0.36 0.36 0.36 1 1018.6
20260831163044 21 94 0.0 0.0 0.25 0.25 0.25 1 1018.6
20260831161537 20 94 0.0 0.0 0.05 0.05 0.05 1 1018.8
20260831160134 20 94 0.0 0.0 0.00 0.00 0.00 1 1018.5
20260831154534 20 94 0.0 0.0 0.00 0.00 0.00 1 1018.5
20260831153028 20 94 0.0 0.0 0.00 0.00 0.00 1 1018.5
20260831151526 20 94 0.0 0.0 0.00 0.00 0.00 1 1018.5
20260831150126 20 96 0.0 0.0 0.00 0.00 0.00 1 1018.5
20260831144524 19 121 0.0 0.0 0.00 0.00 0.00 1 1018.6
20260831143023 19 126 0.0 0.0 0.00 0.00 0.00 1 1018.5
20260831141519 18 54 0.0 0.0 0.00 0.00 0.00 1 1018.5
20260831140115 17 42 0.0 0.0 0.00 0.00 0.00 1 1018.5
20260831134514 17 93 0.0 0.0 0.00 0.00 0.00 1 1018.7
20260831133009 17 224 0.0 0.0 0.00 0.00 0.00 1 1018.8
20260831131504 17 224 0.0 0.0 0.00 0.00 0.00 1 1018.9
20260831130101 17 224 0.0 0.0 0.00 0.00 0.00 1 1018.9
20260831124502 16 224 0.0 0.0 0.00 0.00 0.00 1 1018.9
20260831123057 16 224 0.0 0.0 0.00 0.00 0.00 1 1018.8
20260831121553 16 224 0.0 0.0 0.00 0.00 0.00 1 1019.0
20260831120050 16 224 0.0 0.0 0.00 0.00 0.00 1 1019.1
20260831114551 16 224 0.0 0.0 0.00 0.00 0.00 1 1018.9
20260831113047 16 224 0.0 0.0 0.00 0.00 0.00 1 1018.9
20260831111556 16 224 0.0 0.0 0.00 0.00 0.00 1 1018.9
20260831110046 16 224 0.0 0.0 0.00 0.00 0.00 1 1018.4
20260831104523 16 224 0.0 0.0 0.00 0.00 0.00 1 1018.4
20260831103019 15 224 0.0 0.0 0.00 0.00 0.00 1 1018.1
20260831101515 16 224 0.0 0.0 0.00 0.00 0.00 1 1018.4
20260831100010 15 224 0.0 0.0 0.00 0.00 0.00 1 1018.3
20260831094512 16 224 0.0 0.0 0.00 0.00 0.00 1 1018.3
20260831093011 15 224 0.0 0.0 0.00 0.00 0.00 1 1018.4
20260831091507 15 224 0.0 0.0 0.00 0.00 0.00 1 1018.4
20260831090059 15 224 0.0 0.0 0.00 0.00 0.00 1 1018.2
20260831084607 15 224 0.0 0.0 0.00 0.00 0.00 1 1018.0
20260831083103 15 224 0.0 0.0 0.00 0.00 0.00 1 1018.2
20260831081547 16 224 0.0 0.0 0.00 0.00 0.00 1 1018.1
20260831080042 16 224 0.0 0.0 0.00 0.00 0.00 1 1018.1
20260831074536 16 224 0.0 0.0 0.00 0.00 0.00 1 1018.2
20260831073032 16 224 0.0 0.0 0.00 0.00 0.00 1 1018.0
20260831071532 17 224 0.0 0.0 0.00 0.00 0.00 1 1017.8
20260831070024 16 224 0.0 0.0 0.00 0.00 0.00 1 1018.1
20260831064521 17 224 0.0 0.0 0.00 0.00 0.00 1 1017.9
20260831063016 17 224 0.0 0.0 0.00 0.00 0.00 1 1018.2
20260831061512 17 224 0.0 0.0 0.00 0.00 0.00 1 1018.3
20260831060008 17 224 0.0 0.0 0.00 0.00 0.00 1 1018.4
20260831054505 17 224 0.0 0.0 0.00 0.00 0.00 1 1018.7
20260831053001 18 224 0.0 0.0 0.00 0.00 0.00 1 1018.5
20260831051609 19 224 0.0 0.0 0.00 0.00 0.00 1 1018.5
20260831050054 18 224 0.0 0.0 0.00 0.00 0.00 1 1018.5
20260831044609 22 224 0.0 0.0 0.00 0.00 0.00 1 1018.5
20260831043048 20 224 0.0 0.0 0.00 0.00 0.00 1 1018.6
20260831041552 19 224 0.0 0.0 0.00 0.00 0.00 1 1018.6
20260831040039 20 224 0.0 0.0 0.00 0.00 0.00 1 1018.6
20260831034540 19 224 0.0 0.0 0.00 0.00 0.00 1 1018.6
20260831033038 18 224 0.0 0.0 0.00 0.00 0.00 1 1018.6
20260831031531 19 224 0.0 0.0 0.00 0.00 0.00 1 1018.7
20260831030027 19 224 0.0 0.0 0.00 0.00 0.00 1 1018.6
20260831024523 20 224 0.0 0.0 0.00 0.00 0.00 1 1018.7
20260831023023 19 224 0.0 0.0 0.00 0.00 0.00 1 1018.7
20260831021512 20 224 0.0 0.0 0.00 0.00 0.00 1 1018.8
20260831020007 20 224 0.0 0.0 0.00 0.00 0.00 1 1018.6
20260831014504 20 215 0.0 0.0 0.00 0.00 0.00 1 1018.6
20260831013101 20 220 0.0 0.0 0.00 0.00 0.00 1 1018.5
20260831011557 19 236 0.0 0.0 0.00 0.00 0.00 1 1018.5
20260831010052 19 159 0.0 0.0 0.00 0.00 0.00 1 1018.3
20260831004553 19 159 0.0 0.0 0.00 0.00 0.00 1 1018.2
20260831003051 20 159 0.0 0.0 0.00 0.00 0.00 1 1017.9
20260831001544 20 159 0.0 0.0 0.00 0.00 0.00 1 1017.7
20260831000039 20 159 0.0 0.0 0.00 0.00 0.00 1 1017.5
20260830234553 20 159 0.0 0.0 0.00 0.00 0.00 1 1017.3
20260830233034 20 159 0.0 0.0 0.00 0.00 0.00 1 1017.3
20260830231530 21 159 0.0 0.0 0.00 0.00 0.00 1 1017.3
20260830230025 20 159 0.0 0.0 0.00 0.00 0.00 1 1017.3
20260830224520 21 159 0.0 0.0 0.00 0.00 0.00 1 1017.3
20260830223017 21 159 0.0 0.0 0.00 0.00 0.00 1 1017.1
20260830221512 21 159 0.0 0.0 0.00 0.00 0.00 1 1017.2
20260830220017 22 159 0.0 0.0 0.00 0.00 0.00 1 1017.1
20260830214512 22 159 0.0 0.0 0.00 0.00 0.00 1 1017.1
20260830213010 22 159 0.0 0.0 0.00 0.00 0.00 1 1017.2
20260830211503 22 159 0.0 0.0 0.00 0.00 0.00 1 1017.3
20260830210100 22 158 0.0 0.0 0.00 0.00 0.00 1 1017.3
20260830204555 22 64 0.0 0.0 0.00 0.00 0.00 1 1017.2
20260830203053 22 63 0.0 0.0 0.00 0.00 0.00 1 1017.2
20260830201548 22 20 0.0 0.0 0.00 0.00 0.00 1 1017.0
20260830200041 23 19 0.0 3.2 0.00 0.00 0.00 16 1016.9
20260830194541 24 5 0.0 4.8 0.00 0.00 0.00 1 1017.0